Regional Weather Roundup
Issued by NWS Little Rock, AR

Home | Current Version | Previous Version | Graphics & Text | Print | Product List | Glossary On
Versions: 1 2 3 4 5 6 7 8 9 10 11 12 13 14 15 16 17 18 19 20 21 22 23 24 25 26 27
000
ASUS44 KLZK 281205
RWRLZK

WEATHER ROUNDUP FOR ARKANSAS
NATIONAL WEATHER SERVICE LITTLE ROCK AR
700 AM CDT THU JUL 28 2016

NOTE: "FAIR" INDICATES FEW OR NO CLOUDS BELOW 12,000 FEET WITH NO
SIGNIFICANT WEATHER AND/OR OBSTRUCTIONS TO VISIBILITY.

ARZ001-003-010-029-281300-
NORTHWEST ARKANSAS

CITY           SKY/WX    TMP DP  RH WIND       PRES   REMARKS
FAYETTEVILLE   PTCLDY    69  69 100 CALM      30.00R
6HR MIN TEMP:  69; 6HR MAX TEMP:  71;

FORT SMITH     CLEAR     76  71  85 CALM      29.96R
6HR MIN TEMP:  75; 6HR MAX TEMP:  79;

HARRISON       CLEAR     73  71  93 W6        29.99R
6HR MIN TEMP:  70; 6HR MAX TEMP:  73;

BENTONVILLE    CLOUDY    72  68  88 CALM      30.00S VSB<1/4
6HR MIN TEMP:  70; 6HR MAX TEMP:  72;

ROGERS         FOG       72  71  97 SW3       30.01R VSB 1/4
6HR MIN TEMP:  68; 6HR MAX TEMP:  72;

SILOAM SPGS    MOCLDY    72  63  73 SW3       30.01R VSB 1/2
6HR MIN TEMP:  70; 6HR MAX TEMP:  72;

HIGHFILL       FOG       71  71 100 CALM      29.99R VSB 1/4
6HR MIN TEMP:  70; 6HR MAX TEMP:  71;

SPRINGDALE     PTCLDY    70  70 100 CALM      30.02R
$$

ARZ004-005-016-281300-
NORTH CENTRAL ARKANSAS

CITY           SKY/WX    TMP DP  RH WIND       PRES   REMARKS
BATESVILLE     CLEAR     72  72 100 CALM      29.94S
6HR MIN TEMP:  72; 6HR MAX TEMP:  73; 6HR PCP:  0.01;

FLIPPIN        PTCLDY    73  70  88 CALM      29.94R
6HR MIN TEMP:  73; 6HR MAX TEMP:  73;

MTN HOME       FOG       72  72 100 CALM      29.96R VSB 1
6HR MIN TEMP:  71; 6HR MAX TEMP:  73;

$$

ARZ040-041-281300-
WEST CENTRAL ARKANSAS

CITY           SKY/WX    TMP DP  RH WIND       PRES   REMARKS
MENA             N/A    N/A N/A N/A MISG        N/A
MOUNT IDA      CLOUDY    73  73 100 CALM      29.97R FOG
6HR MIN TEMP:  73; 6HR MAX TEMP:  76;

$$

ARZ009-017-025-026-028-281300-
NORTHEAST ARKANSAS

CITY           SKY/WX    TMP DP  RH WIND       PRES   REMARKS
CORNING          N/A     73  73 100 CALM      29.93R
JONESBORO      CLOUDY    77  74  90 MISG      29.92R
6HR MIN TEMP:  75; 6HR MAX TEMP:  77; 6HR PCP: TRACE;

NEWPORT        CLOUDY    76  76 100 SW3       29.94R
6HR MIN TEMP:  76; 6HR MAX TEMP:  77; 6HR PCP: TRACE;

WALNUT RIDGE   CLOUDY    75  72  88 W3        29.91R
6HR MIN TEMP:  75; 6HR MAX TEMP:  77;

BLYTHEVILLE    CLOUDY    76  75  97 CALM      29.92R
6HR MIN TEMP:  76; 6HR MAX TEMP:  77; 6HR PCP: TRACE;

$$

ARZ022-023-033-042-044-281300-
CENTRAL ARKANSAS

CITY           SKY/WX    TMP DP  RH WIND       PRES   REMARKS
LITTLE ROCK    CLOUDY    78  73  84 SW3       29.94S
6HR MIN TEMP:  77; 6HR MAX TEMP:  78;

JACKSONVILLE   CLOUDY    76  76 100 S5        29.93S
6HR MIN TEMP:  75; 6HR MAX TEMP:  77;

SEARCY         CLOUDY    76  75  97 SW5       29.96R
6HR MIN TEMP:  75; 6HR MAX TEMP:  76;

HOT SPRINGS    CLOUDY    75  71  87 NW3       29.98R
6HR MIN TEMP:  74; 6HR MAX TEMP:  76;

RUSSELLVILLE   CLOUDY    75  74  96 CALM      29.95R
6HR MIN TEMP:  75; 6HR MAX TEMP:  77;

$$

ARZ036-281300-
EAST ARKANSAS

CITY           SKY/WX    TMP DP  RH WIND       PRES   REMARKS
WEST MEMPHIS   CLOUDY    75  73  93 SW3       29.92R
6HR MIN TEMP:  74; 6HR MAX TEMP:  76;

$$

ARZ050-053-066-070-073-281300-
SOUTHWEST ARKANSAS

CITY           SKY/WX    TMP DP  RH WIND       PRES   REMARKS
ARKADELPHIA    FAIR      74  73  97 W5        29.98R
6HR MIN TEMP:  73; 6HR MAX TEMP:  75;

CAMDEN         CLOUDY    75  72  88 CALM      29.97S FOG
TEXARKANA      CLOUDY    74  72  93 NE3       30.00R
6HR MIN TEMP:  73; 6HR MAX TEMP:  74; 6HR PCP:  0.03;

EL DORADO      CLOUDY    75  74  96 CALM      29.99R
6HR MIN TEMP:  74; 6HR MAX TEMP:  75; 6HR PCP:  0.01;

DE QUEEN       CLOUDY    74  74 100 CALM      29.97R FOG
6HR MIN TEMP:  73; 6HR MAX TEMP:  75;

$$

ARZ056-057-069-281300-
SOUTHEAST ARKANSAS

CITY           SKY/WX    TMP DP  RH WIND       PRES   REMARKS
PINE BLUFF     CLOUDY    74  73  97 SW5       29.95S
6HR MIN TEMP:  73; 6HR MAX TEMP:  74;

STUTTGART      CLOUDY    75  70  83 SW9       29.94S
6HR MIN TEMP:  75; 6HR MAX TEMP:  75;

MONTICELLO     CLOUDY    77  74  90 W5        29.97R
6HR MIN TEMP:  76; 6HR MAX TEMP:  77; 6HR PCP:  0.01;


$$






USA.gov is the U.S. government's official web portal to all federal, state and local government web resources and services.